www.pogodaiklimat.ru

Погода и климат >> Архив погоды >> Украина >> Дружба


ПОГОДА в Дружбе

  • Прогноз погоды в Дружбе
  • Монитор погоды в Дружбе

АРХИВ ПОГОДЫ в Дружбе

Время (UTC), дата Ветер
(напр.,м/с)
 
Видим.   Явления Облачность Т
(С)
Тd
(С)
f
(%)
Тe
(С)
Тes
(С)
Комфортность P
(гПа)
Po
(гПа)
Тmin
(С)
Tmax
(С)
R
(мм)
R24
(мм)
S
(см)
18 14.09 штиль 0 10 км ясно +9.8 +2.9 62 +9 +9 1023.0 999.8 +19.7
21 14.09 штиль 0 10 км ясно +4.0 +1.4 83 +3 +3 1024.0 1000.3
00 15.09 штиль 0 10 км 3/0
[Ci fib]
+2.8 +1.2 89 +2 +2 1023.0 999.2
03 15.09 штиль 0 10 км 3/0
[Ci fib]
+4.4 +2.9 90 +3 +3 1023.0 999.4
06 15.09 З 2 20 км 3/0
[Ci fib]
+9.5 +6.2 80 +8 +10 1023.0 999.8 +2.0
09 15.09 З 3 10 км 10 баллов +15.9 +4.3 46 +16 +16 1022.0 999.3
12 15.09 З 4 20 км 8/5 600 м
[Cu hum Ci fib]
+18.1 +1.1 32 +18 +18 1019.0 996.5
15 15.09 ЮЗ 2 20 км 9/0
[Cs]
+16.8 +1.2 35 +17 +17 1017.0 994.5
18 15.09 штиль 0 10 км 3/0
[Ci fib]
+12.6 +4.3 57 +12 +12 1016.0 993.2 +19.6
21 15.09 ЮЗ 1 10 км 4/0
[Ci fib]
+11.5 +4.0 60 +12 +12 1013.0 990.2
00 16.09 ЮЗ 2 10 км 8/4 600 м
[Sc Ci fib]
+12.0 +3.7 57 +11 +11 1011.0 988.3
03 16.09 ЮЗ 2 10 км 8/4 600 м
[Sc Ac trans]
+11.3 +3.6 59 +10 +10 1009.0 986.2
06 16.09 ЮЗ 2 20 км 10/10 600 м
[Cb cap]
+11.8 +5.0 63 +11 +11 1009.0 986.3 +10.7
09 16.09 Ю 3 20 км {ливн. осадки} 10/10 600 м
[Cb cap]
+14.5 +7.3 62 +14 +14 1007.0 984.6
12 16.09 ЮЗ 5 20 км {ливн. осадки} 8/8 600 м
[Cb cap]
+19.9 +5.9 40 +20 +20 1005.0 983.0
15 16.09 З 3 20 км 6/4 600 м
[Cb cap Ci fib]
+19.1 +4.1 37 +20 +20 1005.0 982.9
18 16.09 штиль 0 10 км 6/3 600 м
[Sc Ci fib]
+13.2 +4.4 55 +13 +13 1007.0 984.4 +21.3 0.0
21 16.09 штиль 0 10 км 8/5 600 м
[Sc Ci fib]
+7.8 +5.1 83 +7 +7 1007.0 984.0
00 17.09 З 1 10 км 8/0
[Ci fib]
+9.4 +5.6 77 +9 +9 1006.0 983.2
03 17.09 З 1 10 км 6/4 600 м
[Sc Ci fib]
+8.0 +5.1 82 +7 +7 1006.0 983.1
06 17.09 ЮЗ 2 20 км 6/0
[Ac trans]
+11.3 +5.4 67 +10 +11 1006.0 983.3 +7.0
09 17.09 ЮЗ 4 20 км 9/9 600 м
[Cb cap]
+14.7 +3.8 48 +14 +14 1005.0 982.6
12 17.09 З 4 20 км 4/4 600 м
[Cb cap]
+15.1 +0.9 38 +14 +17 1004.0 981.6
15 17.09 З 3 20 км 3/3 600 м
[Cu hum]
+15.4 +1.2 38 +15 +15 1004.0 981.7
18 17.09 штиль 0 10 км 10/10 600 м
[Sc]
+7.1 +3.7 79 +6 +6 1005.0 982.0 +17.8
21 17.09 штиль 0 10 км 8/4 600 м
[Sc Ci fib]
+4.4 +2.3 86 +3 +3 1005.0 981.8
00 18.09 штиль 0 10 км 10/10 600 м
[Sc]
+6.7 +3.3 79 +6 +6 1003.0 980.0
03 18.09 В 1 10 км в посл. час ливневой дождь 10/10 600 м
[Cb cap]
+6.5 +4.8 89 +5 +5 1000.0 977.1
06 18.09 Ю 1 20 км {ливн. осадки} 8/8 600 м
[Sc]
+8.4 +5.9 84 +8 +8 999.0 976.2 +4.3 2
09 18.09 З 3 20 км в посл. час ливневой дождь 10/10 600 м
[Cb cap]
+8.2 +6.3 88 +5 +5 999.0 976.2
12 18.09 З 4 4000 м слаб. ливневой дождь 10/10 600 м
[Cb cap]
+6.6 +5.2 91 +3 +3 1001.0 978.1 2
15 18.09 З 3 4000 м слаб. ливневой дождь 10/10 600 м
[Cb cap]
+7.2 +5.8 91 +4 +4 1002.0 979.1
18 18.09 ЮЗ 4 10 км {ливн. осадки} 9/9 600 м
[Cb cap]
+7.3 +5.3 87 +4 +4 1004.0 981.0 +10.0 4
21 18.09 З 3 4000 м слаб. ливневой дождь 10/10 600 м
[Cb cap]
+7.0 +6.1 94 +4 +4 1007.0 984.0
00 19.09 З 3 10 км {ливн. осадки} 9/9 600 м
[Cb cap]
+7.5 +6.4 93 +5 +5 1009.0 986.0 1
03 19.09 З 2 10 км 9/9 600 м
[Cb cap]
+7.7 +5.8 88 +6 +6 1012.0 988.9
06 19.09 З 3 10 км 10 баллов +7.4 +5.5 88 +4 +4 1013.0 989.8 +7.0 1
09 19.09 З 3 10 км 10 баллов +8.7 +6.1 84 +6 +6 1015.0 991.9
12 19.09 ЮЗ 1 20 км {ливн. осадки} 9/9 600 м
[Cb cap]
+9.9 +7.7 86 +9 +9 1015.0 992.0 0.3
15 19.09 ЮЗ 2 20 км {ливн. осадки} 8/8 600 м
[Cb cap Ac trans]
+9.9 +7.3 84 +8 +8 1015.0 992.0
18 19.09 штиль 0 4000 м дымка {ливн. осадки} 4/4 600 м
[Sc]
+6.6 +5.7 94 +6 +6 1016.0 992.7 +12.8 0.3
21 19.09 З 1 4000 м дымка 9/9 600 м
[Sc]
+5.9 +5.2 95 +5 +5 1017.0 993.6
00 20.09 З 1 4000 м дымка 9/9 600 м
[Sc]
+5.9 +5.2 95 +5 +5 1017.0 993.6
03 20.09 ЮЗ 1 4000 м дымка ясно +5.3 +4.9 97 +4 +4 1016.0 992.6
06 20.09 ЮЗ 1 4000 м слаб. ливневой дождь 10/10 600 м
[Cb cap]
+5.8 +5.1 95 +4 +4 1016.0 992.6 +5.0 0.0
09 20.09 ЮЗ 1 20 км {ливн. осадки} 9/9 600 м
[Cb cap]
+8.9 +5.8 81 +8 +9 1015.7 992.6
12 20.09 СЗ 1 20 км в посл. час ливневой дождь 9/9 600 м
[Cb cap]
+9.0 +6.6 85 +8 +8 1015.0 991.9 0.9
15 20.09 З 2 4000 м слаб. ливневой дождь 10/10 600 м
[Cb cap]
+7.5 +5.3 86 +5 +5 1015.0 991.8
18 20.09 штиль 0 4000 м дымка {ливн. осадки} 9/9 600 м
[Cb cap]
+6.1 +5.2 94 +5 +5 1017.0 993.6 +12.6 2
21 20.09 З 1 4000 м дымка 10/10 600 м
[Cb cap]
+5.6 +4.4 92 +4 +4 1017.0 993.6
00 21.09 СЗ 1 4000 м дымка 10/10 600 м
[Cb cap]
+5.3 +4.6 95 +4 +4 1017.0 993.6
03 21.09 СЗ 1 4000 м дымка 9/9 600 м
[Sc]
+4.3 +3.9 97 +3 +3 1018.0 994.5
06 21.09 СЗ 2 4000 м дымка 10/10 600 м
[Sc]
+3.3 +2.6 95 0 0 1020.0 996.3 +2.2
09 21.09 З 2 10 км 10 баллов +5.6 +3.1 84 +3 +3 1020.0 996.5
12 21.09 СЗ 3 10 км 10 баллов +10.3 -0.8 46 +9 +9 1018.0 994.9

 

Местоположение метеостанции Дружба (Сумская область, Украина): широта 52.05 долгота 33.95 высота над уровнем моря 190 м.

В архиве по умолчанию представлена погода в Дружбе за последнюю неделю. Архивные данные за месяц целиком и за предыдущие месяцы, начиная с января 2011 года, Вы можете получить, выбрав интересующий диапазон дат из раскрывающегося списка и нажав кнопку "Ввод!".


*Определитесь, кто Вы:
робот инопланетянин человек

Внимание! Время в таблицах - всемирное. Для получения местного времени необходимо прибавить поправку, которая равна 2 ч.

Смотрите также архив погоды в соседних городах и на ближайших метеорологических станциях:

Погода в Глухове (Сумская область, Украина) (41 км)
Погода в Трубчевске (Брянская область, Россия) (60 км)
Погода в Рыльск (Курская область, Россия) (73 км)
Погода в Навле (Брянская область, Россия) (94 км)
Погода в Семеновке (Черниговская область, Украина) (95 км)
Погода в Дмитровск-Орловский (Орловская область, Россия) (96 км)
Погода в Железногорске (Курская область, Россия) (102 км)
Погода в Конотопе (Сумская область, Украина) (105 км)
Погода в Унече (Брянская область, Россия) (123 км)
Погода в Курчатове (Курская область, Россия) (127 км)

Пояснения к столбцам:

Ветер - указаны скорость ветра в м/с - средняя за 10 мин, порывы в срок и между сроками (в фигурных скобках) и направление, откуда дует ветер: С - северный, СВ - северо-восточный, В - восточный, ЮВ - юго-восточный, Ю - южный, ЮЗ - юго-западный, З - западный, СЗ - северо-западный.
Видимость - горизонтальная дальность видимости в метрах или километрах. При видимости от 1 до 10 км при отсутствии осадков обычно наблюдается дымка, при ухудшении видимости до 1 км и менее - туман. В сухую погоду видимость может ухудшаться дымом, пылью или мглою.
Явления - указаны атмосферные явления, наблюдавшиеся в срок или в последний час перед сроком; фигурными скобками обозначены явления, наблюдавшиеся между сроками (за 1-3 часа до срока); квадратными скобками обозначены град или гололедные отложения с указанием их диаметра в мм.
Облачность - указаны через наклонную черту общая и нижняя облачность в баллах и высота нижней границы облаков в метрах; квадратными скобками обозначены формы облаков: Ci - перистые, Cs - перисто-слоистые, Cc - перисто-кучевые, Ac - высококучевые, As - высокослоистые, Sc - слоисто-кучевые, Ns - слоисто-дождевые, Cu - кучевые, Cb - кучево-дождевые. Подробнее классификацию облаков см. в Атласе облаков (PDF).
T - Температура воздуха - температура, измеренная на высоте 2 м над землей.
Td - Температура точки росы - температура, при понижении до которой содержащийся в воздухе водяной пар достигнет насыщения.
f - Относительная влажность воздуха - влажноcть воздуха, измеренная на высоте 2 м над землей.
Te - Эффективная температура - температура, которую ощущает одетый по сезону человек в тени. Характеристика душности погоды. При расчете учитывается влияние влажности воздуха и скорости ветра на теплоощущения человека.
Tes - Эффективная температура на солнце - температура, которую ощущает человек, с поправкой на солнечный нагрев. Характеристика знойности погоды. Зависит от высоты солнца над горизонтом, облачности и скорости ветра. Ночью, в пасмурную погоду, а также при ветре 12 м/с и более поправка равна нулю.
P - Атмосферное давление - приведенное к уровню моря атмосферное давление.
Po - Атмосферное давление - измеренное на уровне метеостанции атмосферное давление.
Tmin - Минимальная температура - минимум температуры воздуха на высоте 2 м над землей.
Tmax - Максимальная температура - максимум температуры воздуха на высоте 2 м над землей.
R - Количество осадков - Количество выпавших осадков за период времени, мм. При наведении курсора мыши на число - период времени, за который выпало указанное количество осадков.
R24 - Количество осадков - Количество выпавших осадков за 24 часа, мм.
S - Снежный покров - Высота снежного покрова, см. При наведении курсора мыши на число - состояние снежного покрова и степень покрытия местности в баллах.